Alicante, Spain

6:26 PM CEST on July 28, 2017 (GMT +0200)
Alicante

Weather History for LEAL - March, 2013

Change the Weather History Date:

Friday, March 15, 2013

  Actual Average Record
Temperature  
Mean Temperature 54 °F -  
Max Temperature 67 °F 66 °F 73 °F (2008)
Min Temperature 42 °F 48 °F 39 °F (2015)
Degree Days  
Heating Degree Days 10    
Growing Degree Days 4 (Base 50)    
Moisture  
Dew Point 33 °F    
Average Humidity 46    
Maximum Humidity 77    
Minimum Humidity 10    
Precipitation  
Precipitation 0.00 in - - ()
Sea Level Pressure  
Sea Level Pressure 30.04 in    
Wind  
Wind Speed 9 mph ()    
Max Wind Speed 23 mph    
Max Gust Speed 31 mph    
Visibility 7.4 miles    
Events      
Averages and records for this station are not official NWS values.
T = Trace of Precipitation, MM = Missing Value Source: Averaged Metar Reports

Daily Weather History Graph

Daily Weather History Graph

Search for Another Location

Airport or City:

Trip Planner

Search our weather history database for the weather conditions in past years. The results will help you decide how hot, cold, wet, or windy it might be!

Date:

Astronomy

Mar. 15, 2013 Rise Set
Actual Time 7:13 AM CET 7:09 PM CET
Civil Twilight 6:47 AM CET 7:35 PM CET
Nautical Twilight 6:16 AM CET 8:06 PM CET
Astronomical Twilight 5:45 AM CET 8:37 PM CET
Moon 8:57 AM CET (3/15) 11:05 PM CET (3/15)
Length of Visible Light 12h 48m
Length of Day
11h 56m
Waxing Crescent, 14% of the Moon is Illuminated
Mar 15
Waxing Crescent
Mar 19
First Quarter
Mar 27
Full
Apr 3
Last Quarter
Apr 10
New

Hourly Weather History & Observations

Time (CET) Temp. Windchill Dew Point Humidity Pressure Visibility Wind Dir Wind Speed Gust Speed Precip Events Conditions
12:00 AM 48.2 °F - 28.4 °F 46% 30.01 in 6.2 mi WSW 5.8 mph - N/A   Partly Cloudy
12:30 AM 44.6 °F 41.4 °F 30.2 °F 57% 30.01 in 6.2 mi West 5.8 mph - N/A   Partly Cloudy
1:00 AM 43 °F - 28 °F 42% 30.03 in 12 mi West 8.1 mph - -   Scattered Clouds
1:00 AM 42.8 °F 38.6 °F 30.2 °F 61% 30.01 in 6.2 mi West 6.9 mph - N/A   Partly Cloudy
1:30 AM 44.6 °F 40.2 °F 30.2 °F 57% 30.01 in 6.2 mi West 8.1 mph - N/A   Partly Cloudy
2:00 AM 46.4 °F 42.4 °F 30.2 °F 53% 30.01 in 6.2 mi WNW 8.1 mph - N/A   Partly Cloudy
2:30 AM 46.4 °F 42.9 °F 28.4 °F 50% 30.01 in 6.2 mi WNW 6.9 mph - N/A   Partly Cloudy
3:00 AM 48.2 °F - 28.4 °F 46% 30.01 in 6.2 mi WNW 9.2 mph - N/A   Partly Cloudy
3:30 AM 50.0 °F - 28.4 °F 43% 30.01 in 6.2 mi WNW 8.1 mph - N/A   Partly Cloudy
4:00 AM 50.0 °F - 28.4 °F 43% 30.01 in 6.2 mi WNW 10.4 mph - N/A   Partly Cloudy
4:30 AM 50.0 °F - 28.4 °F 43% 30.01 in 6.2 mi WNW 10.4 mph - N/A   Partly Cloudy
5:00 AM 50.0 °F - 26.6 °F 40% 30.01 in 6.2 mi WNW 15.0 mph - N/A   Partly Cloudy
5:30 AM 50.0 °F - 28.4 °F 43% 29.98 in 6.2 mi WNW 17.3 mph - N/A   Partly Cloudy
6:00 AM 48.2 °F - 28.4 °F 46% 29.98 in 6.2 mi WNW 23.0 mph - N/A   Partly Cloudy
6:30 AM 48.2 °F - 28.4 °F 46% 30.01 in 6.2 mi WNW 16.1 mph - N/A   Partly Cloudy
7:00 AM 47 °F - 26 °F 30% 30.04 in 19 mi West 13.8 mph - -   Clear
7:30 AM 48.2 °F - 28.4 °F 46% 30.04 in - West 12.7 mph - N/A   Clear
8:00 AM 50.0 °F - 28.4 °F 43% 30.04 in - WSW 5.8 mph - N/A   Clear
8:30 AM 50.0 °F - 28.4 °F 43% 30.04 in - WSW 3.5 mph - N/A   Clear
9:00 AM 51.8 °F - 28.4 °F 41% 30.06 in - WNW 11.5 mph - N/A   Clear
9:30 AM 53.6 °F - 28.4 °F 38% 30.06 in - WNW 18.4 mph 31.1 mph N/A   Clear
10:00 AM 55.4 °F - 28.4 °F 36% 30.06 in - WNW 17.3 mph - N/A   Clear
10:30 AM 57.2 °F - 26.6 °F 31% 30.06 in - WNW 18.4 mph - N/A   Clear
11:00 AM 59.0 °F - 28.4 °F 31% 30.06 in - WNW 16.1 mph - N/A   Clear
11:30 AM 60.8 °F - 28.4 °F 29% 30.06 in - WNW 16.1 mph - N/A   Clear
12:00 PM 60.8 °F - 24.8 °F 25% 30.06 in - West 12.7 mph - N/A   Clear
12:30 PM 62.6 °F - 24.8 °F 24% 30.04 in - West 11.5 mph - N/A   Clear
1:00 PM 62 °F - 20 °F 10% 30.06 in 31 mi West 11.5 mph - -   Clear
1:00 PM 62.6 °F - 23.0 °F 22% 30.04 in - WNW 10.4 mph - N/A   Clear
1:30 PM 62.6 °F - 30.2 °F 30% 30.04 in - Variable 3.5 mph - N/A   Clear
2:00 PM 62.6 °F - 28.4 °F 27% 30.04 in - East 12.7 mph 24.2 mph N/A   Clear
2:30 PM 64.4 °F - 24.8 °F 22% 30.04 in - SSE 9.2 mph - N/A   Clear
3:00 PM 64.4 °F - 30.2 °F 28% 30.01 in - Variable 5.8 mph - N/A   Clear
3:30 PM 62.6 °F - 33.8 °F 34% 30.04 in - East 12.7 mph - N/A   Clear
4:00 PM 62.6 °F - 35.6 °F 37% 30.04 in - East 10.4 mph - N/A   Clear
4:30 PM 62.6 °F - 32.0 °F 32% 30.04 in - East 11.5 mph - N/A   Clear
5:00 PM 59.0 °F - 41.0 °F 51% 30.04 in - East 15.0 mph - N/A   Clear
5:30 PM 59.0 °F - 41.0 °F 51% 30.04 in - East 11.5 mph - N/A   Clear
6:00 PM 57.2 °F - 46.4 °F 67% 30.04 in - East 9.2 mph - N/A   Clear
6:30 PM 57.2 °F - 46.4 °F 67% 30.04 in - NE 9.2 mph - N/A   Clear
7:00 PM 55 °F - 44 °F 58% 30.06 in 25 mi NE 10.4 mph - -   Clear
7:00 PM 55.4 °F - 48.2 °F 77% 30.04 in - NE 10.4 mph - N/A   Clear
7:30 PM 55.4 °F - 46.4 °F 72% 30.06 in - NNE 10.4 mph - N/A   Clear
8:00 PM 55.4 °F - 46.4 °F 72% 30.06 in - NNE 9.2 mph - N/A   Clear
8:30 PM 53.6 °F - 46.4 °F 77% 30.06 in - NNE 9.2 mph - N/A   Clear
9:00 PM 51.8 °F - 42.8 °F 71% 30.06 in - North 9.2 mph - N/A   Clear
9:30 PM 51.8 °F - 41.0 °F 67% 30.06 in - North 6.9 mph - N/A   Clear
10:30 PM 50.0 °F - 41.0 °F 71% 30.06 in - North 4.6 mph - N/A   Clear
11:00 PM 50.0 °F - 41.0 °F 71% 30.06 in - North 5.8 mph - N/A   Clear
11:30 PM 50.0 °F - 41.0 °F 71% 30.09 in - NNW 6.9 mph - N/A   Clear